Location: Bluff Heights
(33.7692°N, 118.1592°W)
Time: 23:12:17
(UTC+00:00)

AO-73 - Pass Details

Date: 29 September 2021
Orbit: 580 x 662 km, 97.6° (Epoch: 20 October)

Event Time Altitude Azimuth Distance (km) Brightness Sun altitude
Rises 11:16:50 0° 39° (NE) 2,824 ? -31.3°
Reaches altitude 10° 11:20:47 10° 77° (ENE) 1,904 ? -30.5°
Maximum altitude 11:21:49 11° 92° (E) 1,847 ? -30.3°
Drops below altitude 10° 11:22:51 10° 107° (ESE) 1,895 ? -30.1°
Sets 11:26:43 0° 145° (SE) 2,783 ? -29.3°
